FW4661 Weather Reports


time (UTC)temp
C
wind
direction
speed
KPH
gust
KPH
rain 1hr
cm
rain 24hr
cm
rain mn
cm
humidity
%
barometer
mb
20260504050003 11 326 0.0 8.0 0.00 0.03 0.03 81 1049.8
20260504045003 11 268 4.8 8.0 0.00 0.03 0.03 81 1050.0
20260504043003 11 315 3.2 6.4 0.00 0.03 0.03 81 1050.2
20260504020004 11 227 12.9 24.1 0.00 0.03 0.03 85 1050.4
20260504015003 11 214 4.8 20.9 0.00 0.03 0.03 86 1050.6
20260504014003 11 205 6.4 20.9 0.00 0.03 0.03 87 1050.5
20260504013004 11 225 6.4 16.1 0.00 0.03 0.03 88 1050.8
20260504012003 11 200 4.8 9.7 0.00 0.03 0.03 89 1050.8
20260504011003 11 192 6.4 22.5 0.00 0.03 0.03 89 1051.1
20260504010004 11 211 6.4 19.3 0.00 0.03 0.03 90 1051.2
20260504005004 11 212 6.4 20.9 0.00 0.03 0.03 91 1051.5
20260504004003 10 208 6.4 12.9 0.00 0.03 0.03 92 1051.7
20260504003217 10 194 3.2 19.3 0.00 0.03 0.03 92 1051.8
20260504002003 10 185 8.0 22.5 0.00 0.03 0.03 92 1052.1
20260504001214 10 179 3.2 17.7 0.00 0.03 0.03 92 1052.1
20260504000003 10 192 6.4 22.5 0.00 0.03 0.03 93 1052.2
20260503235216 10 203 12.9 22.5 0.00 0.03 0.03 93 1052.3
20260503234003 10 186 12.9 19.3 0.00 0.03 0.03 93 1052.4
20260503233003 10 187 4.8 27.4 0.00 0.03 0.03 93 1052.3
20260503232003 10 200 8.0 27.4 0.00 0.03 0.03 93 1052.4
20260503231004 10 210 11.3 27.4 0.00 0.03 0.03 93 1052.5
20260503230216 10 198 9.7 33.8 0.00 0.03 0.03 94 1052.4
20260503225003 9 182 6.4 27.4 0.00 0.03 0.03 94 1052.5
20260503224218 9 183 11.3 27.4 0.00 0.03 0.03 94 1052.4
20260503223213 9 201 4.8 22.5 0.00 0.03 0.03 94 1052.2
20260503222003 9 199 14.5 35.4 0.00 0.03 0.03 94 1052.5
20260503221004 9 204 9.7 29.0 0.00 0.03 0.03 94 1052.3
20260503220003 8 183 6.4 22.5 0.00 0.03 0.03 94 1052.0
20260503215003 8 202 9.7 37.0 0.00 0.03 0.03 95 1052.3
20260503214004 8 206 19.3 37.0 0.00 0.03 0.03 95 1052.2
20260503213004 8 183 12.9 37.0 0.00 0.03 0.03 94 1052.1
20260503212003 8 180 12.9 24.1 0.00 0.03 0.03 94 1052.2
20260503211003 8 199 12.9 24.1 0.00 0.03 0.03 94 1052.0
20260503210004 8 210 3.2 17.7 0.00 0.03 0.03 94 1052.1
20260503205003 7 194 3.2 38.6 0.00 0.03 0.03 94 1052.1
20260503204003 7 208 3.2 19.3 0.00 0.03 0.03 94 1052.0
20260503203004 7 209 3.2 14.5 0.00 0.03 0.03 94 1052.0
20260503202004 7 194 3.2 14.5 0.00 0.03 0.03 93 1052.0
20260503201003 7 184 3.2 20.9 0.00 0.03 0.03 93 1051.7
20260503200004 7 188 3.2 20.9 0.00 0.03 0.03 93 1051.6
20260503195004 7 192 11.3 20.9 0.00 0.03 0.03 93 1051.5
20260503194003 7 203 3.2 6.4 0.03 0.03 0.03 93 1051.3
20260503193003 7 205 3.2 6.4 0.03 0.03 0.03 93 1050.9
20260503192003 7 211 3.2 6.4 0.03 0.03 0.03 93 1051.0
20260503191004 7 201 4.8 9.7 0.03 0.03 0.03 93 1050.9
20260503190004 7 204 3.2 11.3 0.03 0.03 0.03 92 1051.0
20260503185004 7 202 4.8 12.9 0.03 0.03 0.03 92 1051.0
20260503184003 7 209 4.8 11.3 0.00 0.00 0.00 92 1050.9
20260503183003 7 193 3.2 9.7 0.00 0.00 0.00 92 1051.0
20260503182005 6 209 3.2 9.7 0.00 0.00 0.00 93 1051.0
20260503181004 6 194 4.8 8.0 0.00 0.00 0.00 92 1051.0
20260503180004 6 194 3.2 6.4 0.00 0.00 0.00 92 1050.7
20260503175003 6 216 3.2 4.8 0.00 0.00 0.00 92 1050.8
20260503174003 6 214 0.0 6.4 0.00 0.00 0.00 92 1050.8
20260503173004 6 216 0.0 4.8 0.00 0.00 0.00 92 1050.8
20260503172004 6 213 3.2 6.4 0.00 0.00 0.00 92 1050.8
20260503171004 6 208 0.0 4.8 0.00 0.00 0.00 91 1051.0
20260503151003 5 0 0.0 0.0 0.00 0.00 0.00 90 1050.8
20260503150216 5 225 0.0 3.2 0.00 0.00 0.00 90 1050.7
20260503131003 5 0 0.0 0.0 0.00 0.00 0.00 88 1051.1
20260503081004 11 304 0.0 6.4 0.00 0.00 0.00 83 1050.9
20260503072003 12 284 1.6 6.4 0.00 0.00 0.00 83 1050.9
20260503071003 12 336 4.8 12.9 0.00 0.00 0.00 83 1050.9